Current weather by "City, St" or "zip code"  
 

Current Conditions: Lovelock, Derby Field Airport, NV

Fair


61.0 F

Last Updated on Oct 29 2020, 5:53 pm PDT
Humidity: 20%
Wind Speed: SW 4.6 mph
Barometer 30.18 in
Dewpoint: 19.0 F
Visibility: 10.00 mi
Precip: Trace
Heat Index: NA
Wind Chill: 61 F
Current conditions at:

Lovelock, Derby Field Airport, NV (KLOL)

Lat: 40.0684 Lon: 118.57017

Local Radar Image active severe weather and emergency alerts image image weather storm and storm spotter reports image weather observation monitoring service image
Local
Radar
Active
Alerts
Storm Reports Obs
Monitoring

Sign-up For Email & Text Message Weather Alert Notification Services



Advertise Here

Observation History for Lovelock, Derby Field Airport, NV


Time Wind
(mph)
Vis
(mi)
Weather Precip (in) Temperature (F) Relative
Humidity
Wind
Chill
(F)
Heat
Index
(F)
Pressure
Air Dwpt altimeter
(in)
sea level
(mb)
Rmks
5:53 pm PDT SW 4.6 10.00 Fair Trace 61.0 19.0 20% 61 NA 30.18 1022.5
4:53 pm PDT W 3.5 10.00 Light Rain Trace 67.0 19.0 16% NA NA 30.19 1022.4
3:53 pm PDT W 4.6 10.00 Fair -- 68.0 19.9 16% NA NA 30.20 1022.6
2:53 pm PDT N 0.0 10.00 Fair -- 67.0 19.9 17% NA NA 30.21 1022.8
1:53 pm PDT N 0.0 10.00 Fair -- 64.0 19.9 18% NA NA 30.24 1023.9
12:53 pm PDT 4.6 10.00 Fair -- 60.0 19.9 21% 60 NA 30.27 1025.4
11:53 am PDT 4.6 10.00 Fair -- 58.0 19.9 23% 58 NA 30.31 1026.8
10:53 am PDT N 0.0 10.00 Fair -- 51.0 18.0 27% NA NA 30.32 1027.5
9:53 am PDT N 0.0 10.00 Fair -- 42.0 17.1 36% NA NA 30.33 1027.9
8:53 am PDT N 0.0 10.00 Fair -- 33.0 16.0 49% NA NA 30.33 1029.2
7:53 am PDT N 0.0 10.00 Fair -- 20.0 3.0 48% NA NA 30.31 1029.1
6:53 am PDT N 0.0 10.00 Fair -- 20.0 12.0 71% NA NA 30.31 1027.8
5:53 am PDT N 0.0 10.00 Fair -- 19.0 % NA NA 30.30 1027.0
4:53 am PDT E 4.6 10.00 Fair -- 21.0 % 15 NA 30.29 1026.1
3:53 am PDT NE 4.6 10.00 Fair -- 21.0 % 15 NA 30.28 1025.6
2:53 am PDT N 0.0 10.00 Fair -- 27.0 % NA NA 30.29 1025.6
1:53 am PDT SE 3.5 10.00 Fair -- 27.0 % NA NA 30.29 1025.9
12:53 am PDT N 0.0 10.00 Fair -- 27.0 % NA NA 30.29 1026.1
10:53 pm PDT S 3.5 10.00 Fair -- 28.0 % NA NA 30.28 1026.7
9:53 pm PDT NE 4.6 10.00 NULL -- 37.0 % 33 NA 30.28 1026.3
8:53 pm PDT E 5.8 10.00 Fair -- 34.0 10.0 37% 29 NA 30.27 1027.0
7:53 pm PDT N 0.0 10.00 Fair -- 38.0 10.9 33% NA NA 30.26 1027.3
6:53 pm PDT NW 3.5 10.00 Fair -- 51.0 19.0 28% NA NA 30.25 1025.9

Regional Weather Observation


Fallon, Naval Air Station, NV (KNFL)

Fair
60.0 F

Winnemucca, Winnemucca Municipal Airport, NV (KWMC)

Fair
62.0 F

Reno/Stead, NV (KRTS)

Fair
59.0 F

Reno, Reno Tahoe International Airport, NV (KRNO)

Fair
66.0 F

Carson City Airport, NV (KCXP)

Fair
25.0 F

Truckee-Tahoe, CA (KTRK)

Clear
64.0 F